Location: Jericho Landing
(40.9681°N, 72.7511°W)
Time: 05:06:38
(UTC+00:00)

Daily predictions for brighter satellites

Satellite Brightness Start Highest point End
(mag) Time Altitude Azimuth Time Altitude Azimuth Time Altitude Azimuth
BREEZE-M DEB (TANK) 4.0 00:03:29 10° NW 00:05:26 19° NNE 00:08:18 10° ENE
Cosmos 2278 Rocket 2.3 00:01:10 10° NNW 00:06:51 70° ENE 00:12:28 10° SSE
Cosmos 1933 Rocket 4.2 00:03:05 10° SSW 00:07:24 62° W 00:11:47 10° N
Cosmos 2084 Rocket 4.4 00:04:31 10° SW 00:08:26 49° NW 00:12:26 10° NNE
Cosmos 1048 Rocket 4.0 00:03:31 10° NNW 00:08:40 65° ENE 00:13:49 10° SSE
Cosmos 1733 Rocket 3.6 00:07:13 10° SSE 00:11:12 36° E 00:15:15 10° NNE
Resurs 01 Rocket 2.7 00:07:35 10° S 00:11:49 48° W 00:16:03 10° NNW
COSMOS 2428 4.4 00:12:19 10° SW 00:17:38 39° WNW 00:22:59 10° N
TSX-5 4.4 00:14:27 10° SSW 00:19:31 75° WNW 00:23:41 10° NNE
USA 32 4.3 00:15:14 10° SSE 00:20:10 46° E 00:25:10 10° NNE
CZ-4 R/B 1.8 00:19:50 10° SE 00:23:18 38° ENE 00:26:46 10° N
CSL-04 Debris 4.3 00:19:48 10° SSE 00:25:02 58° ENE 00:30:19 10° N
In-Cosmos 22 Rocket 4.3 00:20:13 10° NNW 00:25:31 76° W 00:30:50 10° S
OAO 3 Rocket 3.8 00:22:49 10° WSW 00:27:09 40° S 00:30:50 14° ESE
Cosmos 1821 Rocket 4.1 00:23:51 10° S 00:29:56 57° E 00:36:09 10° NNE
SL-08 R/B 4.4 00:27:15 10° NE 00:31:19 26° E 00:35:20 10° SSE
Cosmos 1125 Rocket 3.4 00:26:40 10° SSW 00:31:52 79° ESE 00:37:08 10° NNE
Cosmos 614 Rocket 4.1 00:27:22 10° N 00:32:25 55° ENE 00:37:05 12° SE
SL-16 R/B 2.8 00:29:22 10° SSE 00:34:22 34° ESE 00:39:24 10° NE
Cosmos 2218 Rocket 4.0 00:28:19 10° S 00:34:27 87° E 00:40:38 10° N
CZ-4B R/B 3.7 00:31:37 10° SSE 00:35:17 67° ENE 00:39:07 10° N
Meteor 2-15 4.4 00:32:30 10° S 00:38:34 86° E 00:44:42 10° N
ERS-1 Rocket 3.4 00:35:42 12° SE 00:39:59 44° ENE 00:44:43 10° N
USA 234 3.3 00:35:49 10° NE 00:42:19 63° SE 00:48:47 10° SW
USA 59 Rocket 0.1 00:40:07 10° NNW 00:43:37 53° NE 00:46:41 19° SE
Meteor 2-15 Rocket 4.4 00:39:33 10° S 00:45:34 70° E 00:51:39 10° NNE
Cosmos 468 4.5 00:41:01 10° NNW 00:46:17 79° ENE 00:51:05 13° SSE
OAO 2 Rocket 3.9 00:42:01 10° WSW 00:46:51 41° S 00:49:56 20° ESE
PAYLOAD B 4.3 00:45:24 12° SSE 00:50:23 62° ENE 00:55:49 10° N
Cosmos 1812 2.0 00:52:09 29° NNE 00:52:09 29° NNE 00:53:09 10° N
IRAS Rocket 4.3 00:48:57 10° SSE 00:54:26 79° WSW 00:59:57 10° NNW
SL-8 R/B 3.9 00:52:10 10° WSW 00:56:53 72° NNW 01:01:37 10° ENE
USA 238 DEB 4.3 00:49:48 10° NW 00:57:21 71° WSW 01:04:50 13° SSE
USA 238 4.3 00:49:58 10° NW 00:57:32 72° WSW 01:04:57 13° SSE
BREEZE-M DEB (TANK) 3.8 00:56:59 10° W 00:59:06 20° SW 01:00:00 16° SSW
Cosmos 1656 Rocket 3.8 00:53:52 10° NNW 00:59:15 54° ENE 01:02:31 23° SE
Helios 1A Rocket 2.7 00:56:23 10° N 00:59:34 63° WNW 01:02:43 10° SSW
Cosmos 1400 Rocket 3.1 00:58:47 10° SSW 01:02:19 58° WNW 01:05:53 10° N
Cosmos 1346 Rocket 2.9 00:59:22 10° N 01:02:49 42° ENE 01:03:48 34° ESE
Cosmos 2237 Rocket 3.7 00:57:33 10° SW 01:02:50 39° WNW 01:08:11 10° N
Geosat 4.2 00:58:37 10° NE 01:03:27 47° ESE 01:08:15 10° S
Spot 2 Rocket 4.2 01:02:36 25° ESE 01:04:46 36° ENE 01:09:19 10° N
Cosmos 2285 Rocket 4.2 00:58:55 10° S 01:05:01 50° ESE 01:11:07 10° NNE
Cosmos 44 3.3 01:03:22 10° SSW 01:08:21 85° ESE 01:13:39 10° NNE
Meteor 1-31 Rocket 3.8 01:08:25 10° S 01:11:44 39° W 01:15:04 10° NNW
HBTSS-SV1 4.4 01:07:27 10° WSW 01:11:53 75° S 01:13:56 31° E
SL-4 R/B 3.2 01:11:38 10° SSW 01:13:23 22° S 01:13:23 22° S
Feng Yun 1-1 Rocket 4.4 01:10:50 13° S 01:15:51 74° WSW 01:21:18 10° NNW
SPOT 5 4.3 01:12:21 10° SSW 01:16:29 33° W 01:20:28 10° NNW
SKYMED 3 4.2 01:12:49 10° NNE 01:16:43 89° NW 01:20:14 12° SSW
Okean-O 3.1 01:16:38 34° ESE 01:17:42 41° ENE 01:21:49 10° N
Cosmos 1674 Rocket 3.4 01:15:03 10° N 01:19:24 86° E 01:21:35 29° S
Cosmos 1869 3.9 01:21:05 32° ENE 01:21:05 32° ENE 01:23:40 10° NNE
Gbstr 26 Del rocket 3.6 01:16:45 10° SSW 01:21:52 41° SE 01:22:42 37° ESE
NOSS 2-1 (D) 3.4 01:18:27 10° NW 01:22:05 74° SW 01:23:49 36° SSE
Cosmos 2150 Rocket 3.8 01:18:36 10° S 01:23:42 74° ESE 01:28:53 10° NNE
Cosmos 1908 Rocket 3.4 01:22:34 31° S 01:24:33 69° E 01:28:50 10° NNE
MOS 1 4.5 01:21:00 16° S 01:25:35 70° WSW 01:31:15 10° NNW
Cosmos 1943 Rocket 4.5 01:23:02 10° NW 01:27:01 20° W 01:30:57 10° SW
Okean O Rocket 1.7 01:26:16 44° ESE 01:27:13 54° ENE 01:31:27 10° N
Cosmos 2297 4.4 01:22:32 10° N 01:27:55 40° ENE 01:29:40 32° E
NOSS 2-1 (E) 3.3 01:25:37 10° NW 01:29:14 85° SW 01:30:24 47° SSE
CZ-4B R/B 4.4 01:31:08 19° NE 01:31:08 19° NE 01:32:52 10° NNE
Terra 2.0 01:27:26 24° S 01:30:14 68° W 01:34:55 10° NNW
Cosmos 2369 Rocket 2.5 01:28:28 10° NNW 01:33:53 48° ENE 01:35:25 38° ESE
Cosmos 1782 Rocket 4.0 01:35:06 40° ENE 01:35:06 40° ENE 01:38:43 10° NNE
NOSS 2-1 (C) 3.6 01:31:18 10° NW 01:34:54 64° WSW 01:36:05 44° S
NOSS 3-1 (C) 4.4 01:31:38 10° NNW 01:38:35 51° NE 01:42:29 31° ESE
ADEOS 3.9 01:38:34 24° S 01:41:36 61° WSW 01:46:47 10° NNW
SPOT 3 Rocket 4.1 01:42:14 38° E 01:42:53 40° ENE 01:47:42 10° N
SL-08 R/B 4.5 01:38:56 12° S 01:44:35 81° W 01:50:43 10° N
Cosmos 1943 3.3 01:45:42 48° SE 01:46:12 49° ESE 01:51:39 10° NE
CZ-4B R/B 3.8 01:43:20 21° S 01:47:00 54° W 01:52:33 10° NNW
USA 245 4.1 01:47:24 48° E 01:47:47 49° ENE 01:52:56 10° N
ASTEX 1 3.4 01:47:29 42° S 01:49:09 81° W 01:54:05 10° N
Cosmos 1934 Rocket 3.9 01:46:12 24° S 01:50:11 87° E 01:56:26 10° N
Cosmos 1025 Rocket 3.8 01:46:41 10° NNW 01:50:47 47° W 01:52:18 32° SW
CZ-4 R/B 4.0 01:55:35 10° WSW 01:57:28 13° W 01:59:21 10° WNW
IRS-1C Rocket 4.4 02:01:12 48° ENE 02:01:24 48° ENE 02:06:28 10° N
Cosmos 1300 Rocket 3.6 02:02:59 70° WSW 02:03:14 72° W 02:07:31 10° N
Cosmos 2263 4.2 01:57:40 10° NNW 02:03:18 63° ENE 02:03:58 59° E
Cosmos 967 Rocket 4.4 02:05:41 10° NNW 02:12:10 79° ENE 02:13:16 62° SE
BREEZE-M DEB (TANK) 4.1 02:14:36 10° NW 02:16:11 32° NNW 02:16:11 32° NNW
Cosmos 2123 Rocket 4.4 02:11:35 10° NNW 02:17:45 59° W 02:20:10 37° SSW
SL-16 R/B 3.7 02:13:14 10° WSW 02:18:22 35° WNW 02:23:33 10° N
SJ 16-02 3.7 02:21:23 10° NNE 02:22:38 14° NE 02:22:38 14° NE
USA 234 4.3 02:19:01 10° NE 02:25:08 44° NNW 02:31:15 10° W
USA 59 Rocket 2.5 02:29:54 10° W 02:32:12 14° WSW 02:32:14 14° WSW
Ariane Rocket 3.1 02:36:30 70° NNW 02:36:30 70° NNW 02:40:57 10° NNW
CZ-4B R/B 3.7 02:37:09 61° NW 02:37:09 61° NW 02:41:14 10° NNW
NOSS 3-1 (A) 4.4 02:30:40 10° NNW 02:37:48 55° NE 02:39:40 47° E
Cosmos 1605 Rocket 4.1 02:37:05 57° SW 02:38:12 70° W 02:44:20 10° N
COSMOS 2455 3.3 02:41:23 10° NNW 02:46:57 51° NE 02:46:57 51° NE
Cosmos 1269 Rocket 4.3 02:42:01 10° NNW 02:46:31 64° NW 02:46:31 64° NW
Cosmos 921 Rocket 4.4 02:45:04 10° NNW 02:47:42 36° NNW 02:47:42 36° NNW
Cosmos 1975 Rocket 4.3 02:45:50 10° NNW 02:48:54 39° NW 02:48:54 39° NW
Cosmos 1140 Rocket 4.1 02:49:41 10° NNW 02:53:47 50° WNW 02:53:47 50° WNW
ATLAS 5 CENTAUR R/B 3.6 02:58:29 10° NNW 03:00:41 23° NNE 03:00:41 23° NNE
Okean O Rocket 4.2 03:03:31 13° W 03:03:42 13° W 03:05:44 10° WNW
Cosmos 407 Rocket 4.4 03:04:24 10° NNW 03:07:51 44° NNW 03:07:51 44° NNW
Cosmos 2100 Rocket 4.3 03:15:21 58° NNE 03:15:21 58° NNE 03:20:15 10° N
Cosmos 2369 Rocket 3.9 03:13:13 10° NW 03:17:11 23° W 03:17:11 23° W
BREEZE-M DEB (TANK) 4.4 03:21:34 10° NW 03:43:40 - ESE 03:24:44 56° N
SeaSat 1 4.1 03:41:04 30° N 03:41:04 30° N 03:43:45 10° NNW
ATLAS 2AS CENTAUR R/B 3.9 03:44:29 30° NE 03:44:29 30° NE 03:47:55 10° NE
SJ 16-02 4.1 03:58:18 10° NNW 03:59:08 15° NW 03:59:08 15° NW
Cosmos 1833 Rocket 4.3 04:23:20 30° NNE 04:23:20 30° NNE 04:26:04 10° NNE
ACS3 Solar Sail 3.8 04:43:04 10° NE 04:45:39 18° ENE 04:45:39 18° ENE
CZ-2C R/B 4.2 04:53:15 33° N 04:53:15 33° N 04:56:20 10° N
ATLAS 3B R/B 3.3 04:56:05 10° NNW 05:03:43 55° NE 05:03:46 55° NE
Cosmos 1697 Rocket 4.4 05:06:03 10° NNW 05:08:28 26° NW 05:08:28 26° NW
USA 229 DEB 4.2 05:20:39 10° NW 05:26:58 65° NW 05:26:58 65° NW
USA 229 4.2 05:20:42 10° NW 05:27:05 66° NW 05:27:05 66° NW
Cosmos 1980 Rocket 3.6 05:26:22 10° NNW 05:29:28 34° NNW 05:29:28 34° NNW
ATLAS 2AS CENTAUR R/B 3.8 05:31:51 34° NW 05:32:23 35° NW 05:38:35 10° NNE
Cosmos 2333 Rocket 4.0 05:55:59 10° N 06:00:44 26° NE 06:02:50 21° E
Cosmos 2082 Rocket 3.2 06:04:49 44° N 06:04:49 44° N 06:08:48 10° NNE
USA 281 3.9 06:11:57 38° ESE 06:13:53 49° ENE 06:20:09 10° NNW
Cosmos 2322 Rocket 4.3 06:09:53 10° N 06:14:14 22° NE 06:18:34 10° ESE
Resurs 1-4 Rocket 4.5 06:12:03 10° ENE 06:14:37 14° E 06:15:24 13° E
Cosmos 2279 Rocket 4.3 06:17:37 61° ENE 06:17:37 61° ENE 06:23:08 10° NNE
CZ-3 Stage 3 4.4 06:19:31 24° SE 06:19:31 24° SE 06:26:39 10° E
SL-16 R/B 2.9 06:24:18 10° NNW 06:29:49 49° ENE 06:30:09 48° ENE
ACS3 Solar Sail 2.2 06:24:13 10° N 06:29:12 55° NNW 06:29:12 55° NNW
NOSS 3-3 (A) 4.1 06:36:21 57° NNE 06:36:21 57° NNE 06:41:07 10° NNE
CZ-4C R/B 3.5 06:36:45 27° NNW 06:36:45 27° NNW 06:40:18 10° NNE
Cosmos 2266 Rocket 4.4 06:45:23 10° N 06:51:23 56° E 06:52:41 47° ESE
NOSS 3-3 (C) 3.8 06:52:45 66° N 06:52:45 66° N 06:58:06 10° NNE
ATLAS 3B R/B 4.2 06:47:27 10° NW 06:50:58 25° WNW 06:50:58 25° WNW
Meteor 2-6 Rocket 4.3 06:55:39 72° NNW 06:55:39 72° NNW 07:01:01 10° N
USA 267 3.2 06:49:01 10° NE 06:55:34 71° SE 06:56:03 68° SSE
IDEFIX/ARIANE 42P 3.0 06:55:15 10° N 06:59:26 52° NNW 06:59:26 52° NNW
MOZ.5/SAFIR/RUBIN 5/SL-8 4.4 07:00:41 51° ENE 07:00:42 51° ENE 07:05:13 10° N
Envisat 3.9 06:56:33 10° NNE 07:01:19 40° E 07:01:46 39° ESE
Iridium 4 Rocket 4.2 07:01:35 42° E 07:01:47 42° E 07:06:28 10° NNE
Cosmos 1763 Rocket 3.4 07:12:59 84° NNE 07:12:59 84° NNE 07:18:06 10° NNE
ALOS 3.3 07:08:55 10° NNE 07:13:07 36° E 07:13:36 35° ESE
ADEOS II 3.4 07:12:11 10° NNE 07:16:52 33° E 07:18:54 24° SE
COSMOS 2406 4.2 07:20:34 33° WNW 07:20:42 33° WNW 07:25:54 10° N
BREEZE-M DEB (TANK) 3.7 07:19:20 47° S 07:20:53 56° SSE 07:24:57 10° ENE
CZ-2D R/B 2.5 07:21:41 10° NNE 07:26:52 56° E 07:28:19 42° SSE
USA 234 4.4 07:24:26 10° E 07:30:31 43° NNE 07:36:38 10° NW
CZ-3 R/B 4.2 06:47:29 10° WSW 07:30:33 54° S 07:41:53 10° ESE
Cosmos 2221 3.7 07:32:53 32° NNW 07:32:53 32° NNW 07:35:29 10° N
Cosmos 1354 Rocket 4.0 07:31:05 10° NNW 07:36:23 83° ENE 07:38:48 33° SSE
Cosmos 1503 Rocket 3.9 07:32:22 10° NNW 07:37:31 65° WSW 07:37:31 65° WSW
Cosmos 540 Rocket 3.5 07:40:24 56° W 07:40:42 58° WNW 07:45:48 10° NNE
FENGYUN 3A 4.4 07:37:34 10° N 07:42:28 36° WNW 07:42:44 36° WNW
Cosmos 2360 Rocket 2.1 07:37:30 10° NNW 07:43:12 85° WSW 07:47:31 18° SSE
BREEZE-M DEB (TANK) 3.8 07:42:24 22° NW 07:44:23 47° NNE 07:52:35 10° ESE
Cosmos 2333 Rocket 2.5 07:39:48 10° NW 07:44:45 46° W 07:44:45 46° W
USA 290 3.8 07:47:47 29° N 07:47:47 29° N 07:49:35 10° N
ADEOS Rocket 3.8 07:39:27 10° N 07:46:49 53° WNW 07:49:37 37° WSW
SL-4 R/B 2.4 07:45:50 35° NNW 07:47:10 57° NNE 07:50:54 10° ESE
Cosmos 468 Rocket 3.9 07:46:45 54° SSW 07:47:59 89° WNW 07:53:18 10° NNE
Cosmos 2082 Rocket 4.4 07:46:37 10° WNW 07:48:20 12° NW 07:50:13 10° NNW
Cosmos 1766 Rocket 4.0 07:45:53 10° N 07:50:11 59° E 07:52:29 25° SSE
Resurs 1-4 Rocket 2.0 07:49:36 10° N 07:54:54 73° WNW 07:56:27 46° SW
Cosmos 2278 4.1 07:53:04 10° NW 07:58:15 40° WSW 07:58:15 40° WSW
SL-19 R/B 4.4 07:52:38 10° NNE 07:58:23 84° ESE 08:01:36 30° SSW
USA 281 3.9 07:58:47 32° W 07:58:47 32° W 08:04:16 10° NW
Cosmos 2322 Rocket 2.2 07:53:06 10° NNW 07:58:38 58° WSW 08:01:23 29° S
Cosmos 1833 4.4 07:59:53 42° WSW 08:01:33 57° WNW 08:07:10 10° NNE
BREEZE-M DEB (TANK) 3.7 07:50:35 10° WNW 08:01:49 82° NNE 08:05:13 10° ESE
H-2A R/B 2.0 08:02:16 10° N 08:07:27 82° WNW 08:09:58 32° SSW
ISS -3.9 08:08:06 87° WSW 08:08:09 90° NW 08:11:32 10° NE
Cosmos 2219 Rocket 2.1 08:06:39 10° NNW 08:12:18 81° WSW 08:17:56 10° SSE
SL-16 R/B 3.6 08:09:08 10° NW 08:11:55 21° WNW 08:11:55 21° WNW
Meteor 1-11 Rocket 4.2 08:11:19 10° NNW 08:16:46 41° W 08:18:50 30° SW
JB-3 3.9 08:15:11 28° S 08:17:00 88° W 08:20:37 10° NNW
Cosmos 1461 2.5 08:18:12 51° WSW 08:18:58 68° WNW 08:22:42 10° NNE
ARGOS 3.6 08:16:01 10° NNE 08:21:21 60° E 08:26:37 10° S
Meteor 2-11 Rocket 4.4 08:16:21 10° N 08:22:32 88° W 08:28:40 10° S
METEOR-M 4.1 08:17:57 10° NNE 08:23:18 86° WNW 08:27:08 20° SSW
H-2A R/B 3.0 08:26:13 31° W 08:26:13 31° W 08:29:00 10° NNW
Gbstr 26 Del rocket 2.4 08:25:35 10° NW 08:29:19 84° SW 08:33:08 10° SE
Cosmos 2084 Rocket 3.5 08:25:42 10° NW 08:29:47 51° WSW 08:33:54 10° SSE
Cosmos 372 Rocket 3.8 08:25:55 10° NNW 08:31:04 74° WSW 08:36:09 10° S
Alouette 2 Rocket 3.5 08:28:36 10° NNW 08:32:12 43° W 08:33:25 31° SW
Cosmos 2322 4.5 08:27:39 10° NNW 08:33:17 56° ENE 08:38:51 10° SE
Cosmos 1238 Rocket 4.0 08:36:08 16° NW 08:36:08 16° NW 08:37:30 10° NNW
Cosmos 1151 Rocket 3.9 08:32:16 10° SSE 08:36:18 48° E 08:40:23 10° NNE
USA 267 4.1 08:32:16 10° NE 08:38:18 40° NNW 08:43:24 14° W
Cosmos 1842 Rocket 3.7 08:37:08 25° SW 08:39:24 51° W 08:43:37 10° N
Envisat 4.2 08:35:57 10° NNW 08:39:59 24° WNW 08:41:55 20° W
AQUA 3.7 08:38:09 10° NNE 08:42:51 86° WNW 08:47:23 11° SSW
Meteor 2-4 Rocket 4.1 08:40:31 22° SW 08:43:28 40° WNW 08:48:29 10° N
Aureole 1 Rocket 3.8 08:39:20 10° NW 08:43:34 41° WSW 08:48:47 10° S
USA 276 2.9 08:46:31 17° NNW 08:47:16 24° NNE 08:48:49 10° E
Cosmos 1066 Rocket 4.3 08:44:21 17° SSW 08:48:25 52° WNW 08:53:38 10° N
Cosmos 1758 3.6 08:45:45 10° N 08:49:22 62° E 08:52:56 10° SSE
SL-08 R/B 4.5 08:43:18 10° NNW 08:49:37 72° W 08:55:54 10° S
ALOS 3.6 08:46:19 10° NNW 08:49:48 22° WNW 08:51:38 17° W
Sich 1 2.8 08:49:37 10° NNW 08:53:45 69° W 08:57:51 10° S
ADEOS II 3.0 08:51:45 10° N 08:56:19 31° WNW 08:59:43 16° WSW
Okean 3 Rocket 3.5 08:52:51 10° NNW 08:57:17 67° W 09:01:43 10° S
Cosmos 2297 Rocket 2.7 08:54:50 10° S 09:00:23 62° ESE 09:05:57 10° NNE
Cosmos 841 Rocket 4.1 08:58:30 16° SW 09:02:15 40° WNW 09:07:07 10° N
Cosmos 1805 Rocket 3.6 09:00:53 10° N 09:05:18 86° E 09:09:39 10° S
CZ-2D R/B 3.6 09:02:42 10° NNW 09:06:23 20° WNW 09:09:35 12° WSW
USA 307 4.5 09:05:15 10° SSE 09:06:42 14° ESE 09:08:26 10° E
NOSS 3-4 (A) 4.1 09:01:07 10° NW 09:07:57 51° WSW 09:15:50 10° S
NOSS 3-4 (C) 4.1 09:01:40 10° NW 09:08:31 51° WSW 09:16:25 10° S
Cosmos 1386 Rocket 4.5 09:04:32 10° NNW 09:10:36 66° W 09:16:46 10° S
ATLAS 5 CENTAUR R/B 4.3 09:05:36 13° WSW 09:10:38 65° NW 09:33:08 10° NE
S3M 4.1 09:05:21 10° S 09:11:43 88° W 09:18:03 10° N
H-2A R/B 2.1 09:08:30 10° N 09:12:22 48° WNW 09:16:10 10° SSW
COSMOS 2428 2.7 09:06:46 10° NNW 09:12:30 81° WSW 09:18:10 10° SSE
USA 234 3.3 09:06:52 10° SE 09:13:19 64° SW 09:19:50 10° NW
Cosmos 1898 Rocket 3.9 09:08:36 10° NW 09:13:24 40° WSW 09:18:12 10° S
Cosmos 1937 Rocket 3.6 09:12:33 10° NNW 09:17:34 52° WSW 09:22:31 10° S
SL-16 R/B 2.6 09:11:38 10° S 09:17:45 57° WSW 09:23:55 10° NNW
Cosmos 1340 Rocket 3.7 09:14:08 10° N 09:17:48 50° ENE 09:21:28 10° SSE
Cosmos 158 Rocket 4.4 09:12:58 10° S 09:18:09 68° ESE 09:23:27 10° NNE
DELTA 2 R/B (1) 3.8 09:15:52 11° WSW 09:21:07 63° SSE 09:26:35 10° E
SL-4 R/B 3.1 09:21:22 10° W 09:24:17 21° SW 09:27:07 10° S
Cosmos 2360 Rocket 4.0 09:25:18 10° W 09:26:13 10° W 09:27:07 10° WSW
SL-14 R/B 4.4 09:23:36 10° SW 09:26:51 25° WNW 09:30:08 10° NNW
Meteor 2-10 Rocket 4.4 09:26:23 10° NNW 09:30:43 28° W 09:35:10 10° SSW
RESURS DK-1 3.3 09:26:59 10° NNW 09:30:53 52° ENE 09:34:44 10° SE
BREEZE-M DEB (TANK) 2.3 09:28:28 10° WNW 09:34:39 70° SW 09:37:14 10° SE
CZ-2C R/B 2.4 09:30:19 10° N 09:35:06 60° WNW 09:39:41 10° SSW
Cosmos 1939 Rocket 2.7 09:32:01 10° NNE 09:35:41 85° ESE 09:39:20 10° SSW
